status,avgMeasuredTime,avgSpeed,extID,medianMeasuredTime,TIMESTAMP,vehicleCount,_id,REPORT_ID
OK,42,44,718,42,2014-08-01T07:50:00,9,20746270,181223
OK,60,30,718,60,2014-08-01T07:55:00,15,20746442,181223
OK,58,31,718,58,2014-08-01T08:00:00,10,20746773,181223
OK,41,45,718,41,2014-08-01T08:05:00,8,20747222,181223
OK,56,33,718,56,2014-08-01T08:10:00,12,20747595,181223
OK,69,26,718,69,2014-08-01T08:15:00,26,20748044,181223
OK,69,26,718,69,2014-08-01T08:20:00,19,20748493,181223
OK,89,20,718,89,2014-08-01T08:25:00,10,20748942,181223
OK,41,45,718,41,2014-08-01T08:30:00,16,20749391,181223
OK,35,52,718,35,2014-08-01T08:35:00,13,20749840,181223
OK,68,27,718,68,2014-08-01T08:40:00,17,20750289,181223
OK,69,26,718,69,2014-08-01T08:45:00,22,20750738,181223
OK,79,23,718,79,2014-08-01T08:50:00,12,20751187,181223
OK,84,22,718,84,2014-08-01T08:55:00,11,20751636,181223
OK,76,24,718,76,2014-08-01T09:00:00,10,20752085,181223
OK,60,30,718,60,2014-08-01T09:05:00,7,20752534,181223
OK,43,43,718,43,2014-08-01T09:10:00,14,20752983,181223
OK,71,26,718,71,2014-08-01T09:15:00,18,20753432,181223
OK,70,26,718,70,2014-08-01T09:20:00,13,20753881,181223
OK,52,35,718,52,2014-08-01T09:25:00,14,20754330,181223
OK,52,35,718,52,2014-08-01T09:30:00,15,20754779,181223
OK,52,35,718,52,2014-08-01T09:35:00,9,20755228,181223
OK,81,22,718,81,2014-08-01T09:40:00,16,20755677,181223
OK,81,22,718,81,2014-08-01T09:45:00,18,20756126,181223
OK,70,26,718,70,2014-08-01T09:50:00,19,20756575,181223
OK,49,37,718,49,2014-08-01T09:55:00,17,20757024,181223
OK,78,23,718,78,2014-08-01T10:00:00,12,20757473,181223
OK,84,22,718,84,2014-08-01T10:05:00,14,20757922,181223
OK,70,26,718,70,2014-08-01T10:10:00,21,20758371,181223
OK,61,30,718,61,2014-08-01T10:15:00,19,20758820,181223
OK,74,25,718,74,2014-08-01T10:20:00,14,20759269,181223
OK,75,24,718,75,2014-08-01T10:25:00,18,20759718,181223
OK,85,21,718,85,2014-08-01T10:30:00,26,20760167,181223
OK,106,17,718,106,2014-08-01T10:35:00,25,20760616,181223
OK,216,8,718,216,2014-08-01T10:40:00,25,20761065,181223
OK,208,8,718,208,2014-08-01T10:45:00,45,20761514,181223
OK,168,11,718,168,2014-08-01T10:50:00,40,20761963,181223
OK,77,24,718,77,2014-08-01T10:55:00,18,20762412,181223
OK,47,39,718,47,2014-08-01T11:00:00,16,20762861,181223
OK,73,25,718,73,2014-08-01T11:05:00,19,20763310,181223
OK,73,25,718,73,2014-08-01T11:10:00,21,20763759,181223
OK,63,29,718,63,2014-08-01T11:15:00,26,20764208,181223
OK,58,31,718,58,2014-08-01T11:20:00,25,20764656,181223
OK,47,39,718,47,2014-08-01T11:25:00,19,20765105,181223
OK,54,34,718,54,2014-08-01T11:30:00,20,20765554,181223
OK,73,25,718,73,2014-08-01T11:35:00,15,20766003,181223
OK,49,37,718,49,2014-08-01T11:40:00,11,20766452,181223
OK,75,24,718,75,2014-08-01T11:45:00,24,20766901,181223
OK,77,24,718,77,2014-08-01T11:50:00,32,20767350,181223
OK,100,18,718,100,2014-08-01T11:55:00,31,20767799,181223
OK,105,17,718,105,2014-08-01T12:00:00,36,20768248,181223
OK,149,12,718,149,2014-08-01T12:05:00,34,20768697,181223
OK,153,12,718,153,2014-08-01T12:10:00,34,20769146,181223
OK,100,18,718,100,2014-08-01T12:15:00,22,20769595,181223
OK,84,22,718,84,2014-08-01T12:20:00,20,20770044,181223
OK,83,22,718,83,2014-08-01T12:25:00,22,20770493,181223
OK,64,28,718,64,2014-08-01T12:30:00,14,20770942,181223
OK,55,33,718,55,2014-08-01T12:35:00,10,20771391,181223
OK,36,51,718,36,2014-08-01T12:40:00,18,20771840,181223
OK,38,48,718,38,2014-08-01T12:45:00,20,20772289,181223
OK,37,50,718,37,2014-08-01T12:50:00,8,20772738,181223
OK,39,47,718,39,2014-08-01T12:55:00,11,20773187,181223
OK,56,33,718,56,2014-08-01T13:00:00,15,20773636,181223
OK,54,34,718,54,2014-08-01T13:05:00,19,20774085,181223
OK,50,37,718,50,2014-08-01T13:10:00,20,20774534,181223
OK,63,29,718,63,2014-08-01T13:15:00,18,20774983,181223
OK,66,28,718,66,2014-08-01T13:20:00,17,20775432,181223
OK,72,25,718,72,2014-08-01T13:25:00,17,20775881,181223
OK,48,38,718,48,2014-08-01T13:30:00,14,20776330,181223
OK,43,43,718,43,2014-08-01T13:35:00,19,20776779,181223
OK,53,34,718,53,2014-08-01T13:40:00,13,20777228,181223
OK,50,37,718,50,2014-08-01T13:45:00,13,20777677,181223
OK,34,54,718,34,2014-08-01T13:50:00,17,20778126,181223
OK,36,51,718,36,2014-08-01T13:55:00,17,20778575,181223
OK,39,47,718,39,2014-08-01T14:00:00,17,20779024,181223
OK,38,48,718,38,2014-08-01T14:05:00,23,20779473,181223
OK,60,30,718,60,2014-08-01T14:10:00,20,20779922,181223
OK,63,29,718,63,2014-08-01T14:15:00,17,20780371,181223
OK,127,14,718,127,2014-08-01T14:20:00,23,20780820,181223
OK,161,11,718,161,2014-08-01T14:25:00,25,20781269,181223
OK,199,9,718,199,2014-08-01T14:30:00,21,20781718,181223
OK,186,9,718,186,2014-08-01T14:35:00,19,20782167,181223
OK,137,13,718,137,2014-08-01T14:40:00,15,20782616,181223
OK,65,28,718,65,2014-08-01T14:45:00,9,20783065,181223
OK,36,51,718,36,2014-08-01T14:50:00,15,20783514,181223
OK,40,46,718,40,2014-08-01T14:55:00,18,20783963,181223
OK,38,48,718,38,2014-08-01T15:00:00,11,20784412,181223
OK,48,38,718,48,2014-08-01T15:05:00,10,20784861,181223
OK,50,37,718,50,2014-08-01T15:10:00,11,20785310,181223
OK,50,37,718,50,2014-08-01T15:15:00,10,20785759,181223
OK,37,50,718,37,2014-08-01T15:20:00,13,20786208,181223
OK,39,47,718,39,2014-08-01T15:25:00,18,20786657,181223
OK,40,46,718,40,2014-08-01T15:30:00,24,20787106,181223
OK,44,42,718,44,2014-08-01T15:35:00,26,20787555,181223
OK,41,45,718,41,2014-08-01T15:40:00,16,20788004,181223
OK,31,59,718,31,2014-08-01T15:45:00,13,20788453,181223
OK,31,59,718,31,2014-08-01T15:50:00,19,20788902,181223
OK,35,52,718,35,2014-08-01T15:55:00,14,20789351,181223
OK,37,50,718,37,2014-08-01T16:00:00,17,20789800,181223
OK,39,47,718,39,2014-08-01T16:05:00,21,20790249,181223
OK,46,40,718,46,2014-08-01T16:10:00,14,20790698,181223
OK,81,22,718,81,2014-08-01T16:15:00,11,20791147,181223
OK,39,47,718,39,2014-08-01T16:20:00,16,20791596,181223
OK,39,47,718,39,2014-08-01T16:25:00,16,20792045,181223
OK,40,46,718,40,2014-08-01T16:30:00,10,20792494,181223
OK,38,48,718,38,2014-08-01T16:35:00,11,20792943,181223
OK,37,50,718,37,2014-08-01T16:40:00,11,20793392,181223
OK,62,29,718,62,2014-08-01T16:45:00,13,20793841,181223
OK,81,22,718,81,2014-08-01T16:50:00,13,20794290,181223
OK,83,22,718,83,2014-08-01T16:55:00,10,20794739,181223
OK,76,24,718,76,2014-08-01T17:00:00,9,20795188,181223
OK,67,27,718,67,2014-08-01T17:05:00,10,20795637,181223
OK,64,28,718,64,2014-08-01T17:10:00,5,20796086,181223
OK,77,24,718,77,2014-08-01T17:15:00,7,20796535,181223
OK,76,24,718,76,2014-08-01T17:20:00,9,20796984,181223
OK,39,47,718,39,2014-08-01T17:25:00,8,20797433,181223
OK,49,37,718,49,2014-08-01T17:30:00,5,20797882,181223
OK,42,44,718,42,2014-08-01T17:35:00,6,20798331,181223
OK,38,48,718,38,2014-08-01T17:40:00,12,20798780,181223
OK,53,34,718,53,2014-08-01T17:45:00,18,20799229,181223
OK,51,36,718,51,2014-08-01T17:50:00,16,20799678,181223
OK,74,25,718,74,2014-08-01T17:55:00,16,20800127,181223
OK,79,23,718,79,2014-08-01T18:00:00,15,20800576,181223
OK,48,38,718,48,2014-08-01T18:05:00,11,20801025,181223
OK,41,45,718,41,2014-08-01T18:10:00,9,20801474,181223
OK,47,39,718,47,2014-08-01T18:15:00,8,20801923,181223
OK,50,37,718,50,2014-08-01T18:20:00,5,20802372,181223
OK,89,20,718,89,2014-08-01T18:25:00,6,20802821,181223
OK,90,20,718,90,2014-08-01T18:30:00,6,20803270,181223
OK,43,43,718,43,2014-08-01T18:35:00,6,20803719,181223
OK,93,19,718,93,2014-08-01T18:40:00,8,20804168,181223
OK,93,19,718,93,2014-08-01T18:45:00,8,20804617,181223
OK,88,21,718,88,2014-08-01T18:50:00,4,20805066,181223
OK,80,23,718,80,2014-08-01T18:55:00,6,20805515,181223
OK,76,24,718,76,2014-08-01T19:00:00,7,20805964,181223
OK,76,24,718,76,2014-08-01T19:05:00,3,20806413,181223
OK,68,27,718,68,2014-08-01T19:10:00,5,20806862,181223
OK,68,27,718,68,2014-08-01T19:15:00,5,20807311,181223
OK,59,31,718,59,2014-08-01T19:20:00,0,20807760,181223
OK,77,24,718,77,2014-08-01T19:25:00,3,20808209,181223
OK,54,34,718,54,2014-08-01T19:30:00,5,20808658,181223
OK,38,48,718,38,2014-08-01T19:35:00,4,20809107,181223
OK,34,54,718,34,2014-08-01T19:40:00,3,20809556,181223
OK,78,23,718,78,2014-08-01T19:45:00,10,20810005,181223
OK,76,24,718,76,2014-08-01T19:50:00,14,20810454,181223
OK,51,36,718,51,2014-08-01T19:55:00,6,20810903,181223
OK,37,50,718,37,2014-08-01T20:00:00,3,20811348,181223
OK,39,47,718,39,2014-08-01T20:05:00,7,20811522,181223
OK,69,26,718,69,2014-08-01T20:10:00,7,20811725,181223
OK,56,33,718,56,2014-08-01T20:15:00,2,20811931,181223
OK,25,74,718,25,2014-08-01T20:20:00,4,20812140,181223
OK,34,54,718,34,2014-08-01T20:25:00,5,20812358,181223
OK,68,27,718,68,2014-08-01T20:30:00,7,20812573,181223
OK,81,22,718,81,2014-08-01T20:40:00,4,20812983,181223
OK,78,23,718,78,2014-08-01T20:45:00,5,20813191,181223
OK,78,23,718,78,2014-08-01T20:50:00,5,20813402,181223
OK,29,63,718,29,2014-08-01T20:55:00,3,20813632,181223
OK,26,71,718,26,2014-08-01T21:00:00,5,20813870,181223
OK,56,33,718,56,2014-08-01T21:05:00,10,20814046,181223
OK,69,26,718,69,2014-08-01T21:10:00,7,20814286,181223
OK,91,20,718,91,2014-08-01T21:15:00,5,20814482,181223
OK,96,19,718,96,2014-08-01T21:20:00,3,20814689,181223
OK,39,47,718,39,2014-08-01T21:25:00,3,20814918,181223
OK,39,47,718,39,2014-08-01T21:30:00,4,20815194,181223
OK,39,47,718,39,2014-08-01T21:35:00,3,20815427,181223
OK,27,68,718,27,2014-08-01T21:40:00,5,20815651,181223
OK,41,45,718,41,2014-08-01T21:45:00,3,20815888,181223
OK,74,25,718,74,2014-08-01T21:50:00,3,20816129,181223
OK,53,34,718,53,2014-08-01T21:55:00,5,20816364,181223
OK,24,77,718,24,2014-08-01T22:00:00,0,20816632,181223
OK,30,61,718,30,2014-08-01T22:05:00,1,20817081,181223
OK,36,51,718,36,2014-08-01T22:10:00,8,20817403,181223
OK,40,46,718,40,2014-08-01T22:15:00,8,20817832,181223
OK,75,24,718,75,2014-08-01T22:20:00,1,20818122,181223
OK,75,24,718,75,2014-08-01T22:25:00,0,20818438,181223
OK,75,24,718,75,2014-08-01T22:30:00,0,20818772,181223
OK,106,17,718,106,2014-08-01T22:40:00,1,20819256,181223
OK,106,17,718,106,2014-08-01T22:45:00,1,20819544,181223
OK,89,20,718,89,2014-08-01T22:50:00,1,20819779,181223
OK,64,28,718,64,2014-08-01T22:55:00,2,20820032,181223
OK,33,56,718,33,2014-08-01T23:00:00,2,20820208,181223
OK,33,56,718,33,2014-08-01T23:05:00,3,20820461,181223
OK,29,63,718,29,2014-08-01T23:10:00,2,20820691,181223
OK,27,68,718,27,2014-08-01T23:15:00,1,20820879,181223
OK,27,68,718,27,2014-08-01T23:25:00,0,20821307,181223
OK,39,47,718,39,2014-08-01T23:30:00,5,20821533,181223
OK,36,51,718,36,2014-08-01T23:35:00,5,20821778,181223
OK,33,56,718,33,2014-08-01T23:40:00,3,20821957,181223
OK,39,47,718,39,2014-08-01T23:45:00,3,20822180,181223
OK,62,29,718,62,2014-08-01T23:50:00,2,20822447,181223
OK,62,29,718,62,2014-08-01T23:55:00,2,20822773,181223
OK,92,20,718,92,2014-08-02T00:00:00,0,20823071,181223
OK,92,20,718,92,2014-08-02T00:05:00,0,20823520,181223
OK,92,20,718,92,2014-08-02T00:10:00,0,20823969,181223
OK,92,20,718,92,2014-08-02T00:15:00,0,20824418,181223
OK,92,20,718,92,2014-08-02T00:20:00,0,20824867,181223
OK,35,52,718,35,2014-08-02T00:25:00,2,20825316,181223
OK,44,42,718,44,2014-08-02T00:30:00,3,20825765,181223
OK,47,39,718,47,2014-08-02T00:35:00,0,20826214,181223
OK,47,39,718,47,2014-08-02T00:40:00,0,20826663,181223
OK,47,39,718,47,2014-08-02T00:45:00,2,20827112,181223
OK,50,37,718,50,2014-08-02T00:50:00,1,20827561,181223
OK,50,37,718,50,2014-08-02T00:55:00,0,20828010,181223
OK,27,68,718,27,2014-08-02T01:00:00,1,20828459,181223
OK,27,68,718,27,2014-08-02T01:05:00,0,20828908,181223
OK,64,28,718,64,2014-08-02T01:10:00,2,20829357,181223
OK,63,29,718,63,2014-08-02T01:15:00,3,20829806,181223
OK,63,29,718,63,2014-08-02T01:20:00,1,20830255,181223
OK,63,29,718,63,2014-08-02T01:25:00,0,20830704,181223
OK,63,29,718,63,2014-08-02T01:30:00,0,20831153,181223
OK,63,29,718,63,2014-08-02T01:35:00,0,20831602,181223
OK,63,29,718,63,2014-08-02T01:40:00,0,20832051,181223
OK,53,34,718,53,2014-08-02T01:45:00,2,20832500,181223
OK,57,32,718,57,2014-08-02T01:50:00,4,20832949,181223
OK,82,22,718,82,2014-08-02T01:55:00,3,20833398,181223
OK,23,80,718,23,2014-08-02T02:00:00,1,20833847,181223
OK,23,80,718,23,2014-08-02T02:05:00,0,20834296,181223
OK,23,80,718,23,2014-08-02T02:10:00,0,20834745,181223
OK,23,80,718,23,2014-08-02T02:15:00,0,20835194,181223
OK,27,68,718,27,2014-08-02T02:20:00,1,20835643,181223
OK,27,68,718,27,2014-08-02T02:25:00,1,20836092,181223
OK,41,45,718,41,2014-08-02T02:30:00,3,20836541,181223
OK,29,63,718,29,2014-08-02T02:35:00,1,20836990,181223
OK,29,63,718,29,2014-08-02T02:40:00,0,20837439,181223
OK,29,63,718,29,2014-08-02T02:45:00,0,20837888,181223
OK,29,63,718,29,2014-08-02T02:50:00,0,20838337,181223
OK,29,63,718,29,2014-08-02T02:55:00,0,20838786,181223
OK,29,63,718,29,2014-08-02T03:00:00,0,20839235,181223
OK,29,63,718,29,2014-08-02T03:05:00,0,20839684,181223
OK,86,21,718,86,2014-08-02T03:10:00,1,20840133,181223
OK,86,21,718,86,2014-08-02T03:15:00,1,20840582,181223
OK,86,21,718,86,2014-08-02T03:20:00,0,20841031,181223
OK,86,21,718,86,2014-08-02T03:25:00,0,20841480,181223
OK,86,21,718,86,2014-08-02T03:30:00,0,20841929,181223
OK,86,21,718,86,2014-08-02T03:35:00,0,20842378,181223
OK,31,59,718,31,2014-08-02T03:40:00,1,20842827,181223
OK,31,59,718,31,2014-08-02T03:45:00,1,20843276,181223
OK,15,123,718,15,2014-08-02T03:50:00,1,20843725,181223
OK,15,123,718,15,2014-08-02T03:55:00,0,20844174,181223
OK,15,123,718,15,2014-08-02T04:00:00,0,20844623,181223
OK,33,56,718,33,2014-08-02T04:05:00,3,20844754,181223
OK,33,56,718,33,2014-08-02T04:10:00,3,20845084,181223
OK,33,56,718,33,2014-08-02T04:15:00,0,20845264,181223
OK,33,56,718,33,2014-08-02T04:20:00,0,20845620,181223
OK,49,37,718,49,2014-08-02T04:30:00,1,20846176,181223
OK,49,37,718,49,2014-08-02T04:35:00,0,20846543,181223
OK,49,37,718,49,2014-08-02T04:40:00,0,20846926,181223
OK,49,37,718,49,2014-08-02T04:45:00,0,20847185,181223
OK,49,37,718,49,2014-08-02T04:50:00,0,20847551,181223
OK,44,42,718,44,2014-08-02T04:55:00,2,20847908,181223
OK,53,34,718,53,2014-08-02T05:00:00,2,20848268,181223
OK,57,32,718,57,2014-08-02T05:05:00,4,20848432,181223
OK,71,26,718,71,2014-08-02T05:10:00,5,20848786,181223
OK,67,27,718,67,2014-08-02T05:15:00,2,20848978,181223
OK,37,50,718,37,2014-08-02T05:20:00,2,20849322,181223
OK,33,56,718,33,2014-08-02T05:25:00,1,20849847,181223
OK,72,25,718,72,2014-08-02T05:35:00,2,20850119,181223
OK,72,25,718,72,2014-08-02T05:40:00,0,20850412,181223
OK,28,66,718,28,2014-08-02T05:45:00,3,20850713,181223
OK,29,63,718,29,2014-08-02T05:50:00,4,20851071,181223
OK,75,24,718,75,2014-08-02T05:55:00,2,20851325,181223
OK,68,27,718,68,2014-08-02T06:00:00,2,20851628,181223
OK,58,31,718,58,2014-08-02T06:05:00,2,20852077,181223
OK,59,31,718,59,2014-08-02T06:10:00,4,20852526,181223
OK,42,44,718,42,2014-08-02T06:15:00,3,20852975,181223
OK,41,45,718,41,2014-08-02T06:20:00,1,20853424,181223
OK,52,35,718,52,2014-08-02T06:25:00,6,20853873,181223
OK,38,48,718,38,2014-08-02T06:30:00,8,20854322,181223
OK,46,40,718,46,2014-08-02T06:35:00,2,20854771,181223
OK,44,42,718,44,2014-08-02T06:40:00,3,20855220,181223
OK,44,42,718,44,2014-08-02T06:45:00,5,20855669,181223
OK,86,21,718,86,2014-08-02T06:50:00,3,20856118,181223
OK,35,52,718,35,2014-08-02T06:55:00,3,20856567,181223
OK,31,59,718,31,2014-08-02T07:00:00,2,20857016,181223
OK,31,59,718,31,2014-08-02T07:05:00,0,20857465,181223
OK,114,16,718,114,2014-08-02T07:10:00,1,20857914,181223
OK,33,56,718,33,2014-08-02T07:15:00,7,20858363,181223
OK,29,63,718,29,2014-08-02T07:20:00,7,20858812,181223
OK,32,57,718,32,2014-08-02T07:25:00,1,20859261,181223
OK,53,34,718,53,2014-08-02T07:30:00,6,20859710,181223
OK,51,36,718,51,2014-08-02T07:35:00,6,20860159,181223
OK,54,34,718,54,2014-08-02T07:40:00,8,20860608,181223
OK,60,30,718,60,2014-08-02T07:45:00,6,20861057,181223
OK,31,59,718,31,2014-08-02T07:50:00,5,20861506,181223
OK,33,56,718,33,2014-08-02T07:55:00,8,20861955,181223
OK,37,50,718,37,2014-08-02T08:00:00,5,20862404,181223
OK,48,38,718,48,2014-08-02T08:05:00,3,20862853,181223
OK,48,38,718,48,2014-08-02T08:10:00,3,20863302,181223
OK,80,23,718,80,2014-08-02T08:15:00,7,20863751,181223
OK,76,24,718,76,2014-08-02T08:20:00,20,20864200,181223
OK,76,24,718,76,2014-08-02T08:25:00,29,20864649,181223
OK,72,25,718,72,2014-08-02T08:30:00,24,20865098,181223
OK,65,28,718,65,2014-08-02T08:35:00,12,20865547,181223
OK,89,20,718,89,2014-08-02T08:40:00,7,20865996,181223
OK,74,25,718,74,2014-08-02T08:45:00,8,20866445,181223
OK,64,28,718,64,2014-08-02T08:50:00,8,20866894,181223
OK,62,29,718,62,2014-08-02T08:55:00,8,20867343,181223
OK,68,27,718,68,2014-08-02T09:00:00,7,20867792,181223
OK,52,35,718,52,2014-08-02T09:05:00,4,20868241,181223
OK,28,66,718,28,2014-08-02T09:10:00,4,20868690,181223
OK,29,63,718,29,2014-08-02T09:15:00,5,20869139,181223
OK,37,50,718,37,2014-08-02T09:20:00,5,20869588,181223
OK,37,50,718,37,2014-08-02T09:25:00,7,20870037,181223
OK,31,59,718,31,2014-08-02T09:30:00,12,20870486,181223
OK,29,63,718,29,2014-08-02T09:35:00,11,20870935,181223
OK,32,57,718,32,2014-08-02T09:40:00,5,20871384,181223
OK,40,46,718,40,2014-08-02T09:45:00,6,20871833,181223
OK,39,47,718,39,2014-08-02T09:50:00,8,20872282,181223
OK,35,52,718,35,2014-08-02T09:55:00,6,20872731,181223
OK,33,56,718,33,2014-08-02T10:00:00,8,20873180,181223
OK,31,59,718,31,2014-08-02T10:05:00,11,20873629,181223
OK,42,44,718,42,2014-08-02T10:10:00,12,20874078,181223
OK,36,51,718,36,2014-08-02T10:15:00,14,20874527,181223
OK,51,36,718,51,2014-08-02T10:20:00,25,20874976,181223
OK,59,31,718,59,2014-08-02T10:25:00,35,20875425,181223
OK,85,21,718,85,2014-08-02T10:30:00,33,20875874,181223
OK,97,19,718,97,2014-08-02T10:35:00,23,20876323,181223
OK,66,28,718,66,2014-08-02T10:40:00,18,20876772,181223
OK,45,41,718,45,2014-08-02T10:45:00,14,20877221,181223
OK,36,51,718,36,2014-08-02T10:50:00,17,20877670,181223
OK,35,52,718,35,2014-08-02T10:55:00,11,20878119,181223
OK,45,41,718,45,2014-08-02T11:00:00,8,20878568,181223
OK,44,42,718,44,2014-08-02T11:05:00,15,20879017,181223
OK,37,50,718,37,2014-08-02T11:10:00,14,20879466,181223
OK,38,48,718,38,2014-08-02T11:15:00,11,20879915,181223
OK,35,52,718,35,2014-08-02T11:20:00,11,20880364,181223
OK,36,51,718,36,2014-08-02T11:25:00,12,20880813,181223
OK,39,47,718,39,2014-08-02T11:30:00,9,20881262,181223
OK,45,41,718,45,2014-08-02T11:35:00,5,20881711,181223
OK,43,43,718,43,2014-08-02T11:40:00,9,20882160,181223
OK,41,45,718,41,2014-08-02T11:45:00,14,20882609,181223
OK,42,44,718,42,2014-08-02T11:50:00,14,20883058,181223
OK,50,37,718,50,2014-08-02T11:55:00,9,20883507,181223
OK,47,39,718,47,2014-08-02T12:00:00,14,20883956,181223
OK,53,34,718,53,2014-08-02T12:05:00,33,20884405,181223
OK,101,18,718,101,2014-08-02T12:10:00,33,20884854,181223
OK,117,15,718,117,2014-08-02T12:15:00,31,20885303,181223
OK,99,18,718,99,2014-08-02T12:20:00,16,20885752,181223
OK,41,45,718,41,2014-08-02T12:25:00,12,20886201,181223
OK,52,35,718,52,2014-08-02T12:30:00,13,20886650,181223
OK,52,35,718,52,2014-08-02T12:35:00,11,20887099,181223
OK,85,21,718,85,2014-08-02T12:40:00,8,20887548,181223
OK,79,23,718,79,2014-08-02T12:45:00,14,20887997,181223
OK,77,24,718,77,2014-08-02T12:50:00,12,20888446,181223
OK,54,34,718,54,2014-08-02T12:55:00,7,20888895,181223
OK,72,25,718,72,2014-08-02T13:00:00,7,20889344,181223
OK,77,24,718,77,2014-08-02T13:05:00,9,20889793,181223
OK,38,48,718,38,2014-08-02T13:10:00,10,20890242,181223
OK,43,43,718,43,2014-08-02T13:15:00,10,20890691,181223
OK,42,44,718,42,2014-08-02T13:20:00,11,20891140,181223
OK,35,52,718,35,2014-08-02T13:25:00,6,20891589,181223
OK,64,28,718,64,2014-08-02T13:30:00,10,20892038,181223
OK,50,37,718,50,2014-08-02T13:35:00,15,20892487,181223
OK,41,45,718,41,2014-08-02T13:40:00,8,20892936,181223
OK,41,45,718,41,2014-08-02T13:45:00,12,20893385,181223
OK,44,42,718,44,2014-08-02T13:50:00,15,20893834,181223
OK,48,38,718,48,2014-08-02T13:55:00,18,20894283,181223
OK,83,22,718,83,2014-08-02T14:00:00,29,20894732,181223
OK,92,20,718,92,2014-08-02T14:05:00,23,20895181,181223
OK,83,22,718,83,2014-08-02T14:10:00,13,20895630,181223
OK,84,22,718,84,2014-08-02T14:15:00,14,20896079,181223
OK,55,33,718,55,2014-08-02T14:20:00,13,20896528,181223
OK,67,27,718,67,2014-08-02T14:25:00,18,20896977,181223
OK,39,47,718,39,2014-08-02T14:30:00,21,20897426,181223
OK,52,35,718,52,2014-08-02T14:35:00,8,20897875,181223
OK,59,31,718,59,2014-08-02T14:40:00,4,20898324,181223
OK,29,63,718,29,2014-08-02T14:45:00,4,20898773,181223
OK,59,31,718,59,2014-08-02T14:50:00,11,20899222,181223
OK,61,30,718,61,2014-08-02T14:55:00,16,20899671,181223
OK,54,34,718,54,2014-08-02T15:00:00,10,20900120,181223
OK,74,25,718,74,2014-08-02T15:05:00,14,20900569,181223
OK,72,25,718,72,2014-08-02T15:10:00,11,20901018,181223
OK,63,29,718,63,2014-08-02T15:15:00,7,20901467,181223
OK,58,31,718,58,2014-08-02T15:20:00,8,20901916,181223
OK,74,25,718,74,2014-08-02T15:25:00,7,20902365,181223
OK,66,28,718,66,2014-08-02T15:30:00,10,20902814,181223
OK,66,28,718,66,2014-08-02T15:35:00,10,20903263,181223
OK,57,32,718,57,2014-08-02T15:40:00,9,20903712,181223
OK,53,34,718,53,2014-08-02T15:45:00,14,20904161,181223
OK,73,25,718,73,2014-08-02T15:50:00,18,20904610,181223
OK,81,22,718,81,2014-08-02T15:55:00,18,20905059,181223
OK,36,51,718,36,2014-08-02T16:00:00,14,20905508,181223
OK,36,51,718,36,2014-08-02T16:05:00,10,20905957,181223
OK,36,51,718,36,2014-08-02T16:10:00,8,20906406,181223
OK,38,48,718,38,2014-08-02T16:15:00,9,20906855,181223
OK,47,39,718,47,2014-08-02T16:20:00,8,20907304,181223
OK,38,48,718,38,2014-08-02T16:25:00,5,20907753,181223
OK,28,66,718,28,2014-08-02T16:30:00,5,20908202,181223
OK,31,59,718,31,2014-08-02T16:35:00,7,20908651,181223
OK,54,34,718,54,2014-08-02T16:40:00,5,20909100,181223
OK,54,34,718,54,2014-08-02T16:45:00,5,20909549,181223
OK,33,56,718,33,2014-08-02T16:50:00,5,20909998,181223
OK,33,56,718,33,2014-08-02T16:55:00,7,20910447,181223
OK,45,41,718,45,2014-08-02T17:00:00,10,20910896,181223
OK,61,30,718,61,2014-08-02T17:05:00,9,20911345,181223
OK,57,32,718,57,2014-08-02T17:10:00,10,20911794,181223
OK,59,31,718,59,2014-08-02T17:15:00,11,20912243,181223
OK,56,33,718,56,2014-08-02T17:20:00,7,20912692,181223
OK,31,59,718,31,2014-08-02T17:25:00,3,20913141,181223
OK,66,28,718,66,2014-08-02T17:30:00,3,20913590,181223
OK,36,51,718,36,2014-08-02T17:35:00,7,20914039,181223
OK,36,51,718,36,2014-08-02T17:40:00,5,20914488,181223
OK,31,59,718,31,2014-08-02T17:45:00,0,20914937,181223
OK,83,22,718,83,2014-08-02T17:50:00,2,20915386,181223
OK,70,26,718,70,2014-08-02T17:55:00,6,20915835,181223
OK,57,32,718,57,2014-08-02T18:00:00,6,20916284,181223
OK,61,30,718,61,2014-08-02T18:05:00,10,20916733,181223
OK,55,33,718,55,2014-08-02T18:10:00,11,20917182,181223
OK,37,50,718,37,2014-08-02T18:15:00,6,20917631,181223
OK,57,32,718,57,2014-08-02T18:20:00,8,20918080,181223
OK,57,32,718,57,2014-08-02T18:25:00,6,20918529,181223
OK,98,18,718,98,2014-08-02T18:30:00,2,20918978,181223
OK,44,42,718,44,2014-08-02T18:35:00,4,20919427,181223
OK,45,41,718,45,2014-08-02T18:40:00,7,20919876,181223
OK,45,41,718,45,2014-08-02T18:45:00,9,20920325,181223
OK,34,54,718,34,2014-08-02T18:50:00,10,20920774,181223
OK,43,43,718,43,2014-08-02T18:55:00,8,20921223,181223
OK,90,20,718,90,2014-08-02T19:00:00,2,20921672,181223
OK,87,21,718,87,2014-08-02T19:05:00,4,20922121,181223
OK,72,25,718,72,2014-08-02T19:10:00,10,20922570,181223
OK,42,44,718,42,2014-08-02T19:15:00,12,20923019,181223
OK,36,51,718,36,2014-08-02T19:20:00,5,20923468,181223
OK,35,52,718,35,2014-08-02T19:25:00,0,20923917,181223
OK,59,31,718,59,2014-08-02T19:30:00,2,20924366,181223
OK,58,31,718,58,2014-08-02T19:35:00,3,20924815,181223
OK,71,26,718,71,2014-08-02T19:40:00,3,20925264,181223
OK,57,32,718,57,2014-08-02T19:45:00,2,20925713,181223
OK,56,33,718,56,2014-08-02T19:50:00,4,20926162,181223
OK,87,21,718,87,2014-08-02T19:55:00,3,20926611,181223
OK,35,52,718,35,2014-08-02T20:00:00,4,20927060,181223